Location: ??????
(38.1303°N, 24.0039°E)
Time: 19:22:29
(UTC+00:00)

NOSS 3-4 (C) - Pass Details

Date: 20 June 2021
Orbit: 868 x 1344 km, 63.4° (Epoch: 26 July)

Event Time Altitude Azimuth Distance (km) Brightness Sun altitude
Exits shadow 02:20:17 - 206° (SSW) 2,896 5.4 -7.4°
Reaches altitude 10° 02:21:19 10° 205° (SSW) 2,503 5.1 -7.3°
Maximum altitude 02:27:02 78° 121° (ESE) 909 3.5 -6.4°
Drops below altitude 10° 02:33:06 10° 36° (NE) 2,646 7.2 -5.4°
Sets 02:35:45 0° 35° (NE) 3,650 8.1 -5.0°
